RYR62WF EIKY-LEAL

Flight info

Callsign RYR62WF
Flight time 2h 3m
Altitude 33000
Route KER3C KER DCT TULTA/N0437F330 DCT TURDO DCT NENEM P152 PPN M176 CLS
Aircraft B38M/M-SDE1FGHILORVWXY/HB1

Departure

Time 2026-05-05 18:29
Airport Kerry Airport (EIKY)

Arrival

Time 2026-05-05 20:32
Airport Alicante-Elche Miguel Hernández Airport (LEAL)
Time Latitude Longitude Altitude Speed Heading
2026-05-05 18:24 52.18108 -9.53757 61 ft 0 kts 141°
2026-05-05 18:27 52.18092 -9.53735 57 ft 8 kts 137°
2026-05-05 18:27 52.18065 -9.53688 58 ft 12 kts 142°
2026-05-05 18:28 52.17875 -9.53456 61 ft 9 kts 92°
2026-05-05 18:28 52.17948 -9.53055 58 ft 78 kts 71°
2026-05-05 18:28 52.18214 -9.51784 59 ft 158 kts 71°
2026-05-05 18:29 52.18615 -9.49738 468 ft 209 kts 75°
2026-05-05 18:29 52.18904 -9.47176 1254 ft 253 kts 83°
2026-05-05 18:29 52.18822 -9.44049 2110 ft 294 kts 103°
2026-05-05 18:29 52.17881 -9.41265 4361 ft 274 kts 134°
2026-05-05 18:30 52.16343 -9.39647 6491 ft 258 kts 162°
2026-05-05 18:30 52.14614 -9.39289 8134 ft 247 kts 186°
2026-05-05 18:30 52.12886 -9.39781 9178 ft 262 kts 193°
2026-05-05 18:30 52.10992 -9.40480 9691 ft 297 kts 195°
2026-05-05 18:31 52.08843 -9.41370 9932 ft 340 kts 196°
2026-05-05 18:31 52.06347 -9.42023 10028 ft 388 kts 182°
2026-05-05 18:31 52.03484 -9.41785 10048 ft 435 kts 175°
2026-05-05 18:31 52.00382 -9.41109 10028 ft 477 kts 172°
2026-05-05 18:32 51.96964 -9.40226 10020 ft 517 kts 171°
2026-05-05 18:32 51.93290 -9.39217 10001 ft 552 kts 171°
2026-05-05 18:32 51.89491 -9.38133 9987 ft 556 kts 170°
2026-05-05 18:32 51.85676 -9.37022 9967 ft 556 kts 170°
2026-05-05 18:33 51.81875 -9.35903 9961 ft 556 kts 170°
2026-05-05 18:33 51.78131 -9.34373 9934 ft 557 kts 162°
2026-05-05 18:33 51.74457 -9.32390 9958 ft 556 kts 164°
2026-05-05 18:33 51.70679 -9.31086 9971 ft 554 kts 169°
2026-05-05 18:34 51.66957 -9.29460 9954 ft 555 kts 161°
2026-05-05 18:34 51.63323 -9.27394 9962 ft 554 kts 163°
2026-05-05 18:34 51.59563 -9.26054 9965 ft 553 kts 170°
2026-05-05 18:34 51.55845 -9.24495 9955 ft 553 kts 162°
2026-05-05 18:35 51.52215 -9.22439 9965 ft 552 kts 163°
2026-05-05 18:35 51.48478 -9.21104 9968 ft 551 kts 170°
2026-05-05 18:35 51.44761 -9.19578 9955 ft 552 kts 162°
2026-05-05 18:35 51.41136 -9.17530 9960 ft 552 kts 163°
2026-05-05 18:36 51.37391 -9.16184 9963 ft 552 kts 170°
2026-05-05 18:36 51.33667 -9.14685 9953 ft 553 kts 162°
2026-05-05 18:36 51.30036 -9.12639 9961 ft 553 kts 163°
2026-05-05 18:36 51.26331 -9.11291 9963 ft 553 kts 170°
2026-05-05 18:37 51.22550 -9.09804 9964 ft 554 kts 162°
2026-05-05 18:37 51.18915 -9.07768 9969 ft 553 kts 163°
2026-05-05 18:37 51.15212 -9.06411 9970 ft 553 kts 170°
2026-05-05 18:37 51.11472 -9.04972 9964 ft 554 kts 163°
2026-05-05 18:38 51.07834 -9.02942 9972 ft 553 kts 162°
2026-05-05 18:38 51.04088 -9.01564 9968 ft 553 kts 170°
2026-05-05 18:38 51.00346 -9.00146 9963 ft 554 kts 163°
2026-05-05 18:38 50.96708 -8.98117 9973 ft 553 kts 162°
2026-05-05 18:39 50.92969 -8.96722 9978 ft 553 kts 170°
2026-05-05 18:39 50.89224 -8.95331 9969 ft 553 kts 163°
2026-05-05 18:39 50.85593 -8.93317 9977 ft 553 kts 162°
2026-05-05 18:39 50.81854 -8.91912 9975 ft 552 kts 170°
2026-05-05 18:40 50.78114 -8.90551 9974 ft 553 kts 163°
2026-05-05 18:40 50.74480 -8.88550 9979 ft 553 kts 162°
2026-05-05 18:40 50.70742 -8.87138 9979 ft 552 kts 170°
2026-05-05 18:40 50.66998 -8.85791 9974 ft 553 kts 164°
2026-05-05 18:41 50.63354 -8.83794 9978 ft 553 kts 162°
2026-05-05 18:41 50.59612 -8.82375 9976 ft 553 kts 170°
2026-05-05 18:41 50.55866 -8.81050 9973 ft 553 kts 164°
2026-05-05 18:41 50.52232 -8.79066 9986 ft 553 kts 162°
2026-05-05 18:42 50.48489 -8.77634 9983 ft 553 kts 170°
2026-05-05 18:42 50.44741 -8.76333 9974 ft 554 kts 164°
2026-05-05 18:42 50.41184 -8.74324 11616 ft 520 kts 162°
2026-05-05 18:42 50.37817 -8.73028 15116 ft 480 kts 170°
2026-05-05 18:43 50.34661 -8.71937 17919 ft 452 kts 164°
2026-05-05 18:43 50.31783 -8.70522 20110 ft 427 kts 166°
2026-05-05 18:43 50.28956 -8.69522 22100 ft 406 kts 166°
2026-05-05 18:43 50.26315 -8.68268 23845 ft 388 kts 165°
2026-05-05 18:44 50.23747 -8.67270 25208 ft 372 kts 167°
2026-05-05 18:44 50.21305 -8.66222 26447 ft 358 kts 165°
2026-05-05 18:44 50.18942 -8.65218 27573 ft 345 kts 167°
2026-05-05 18:44 50.16653 -8.64280 28591 ft 334 kts 166°
2026-05-05 18:45 50.14444 -8.63347 29486 ft 324 kts 166°
2026-05-05 18:45 50.12269 -8.62444 30127 ft 323 kts 166°
2026-05-05 18:45 50.10093 -8.61533 30476 ft 325 kts 166°
2026-05-05 18:45 50.07899 -8.60622 30817 ft 328 kts 166°
2026-05-05 18:46 50.05685 -8.59700 31143 ft 330 kts 166°
2026-05-05 18:46 50.03481 -8.58777 31481 ft 333 kts 166°
2026-05-05 18:46 50.01235 -8.57847 31807 ft 335 kts 166°
2026-05-05 18:46 49.98976 -8.56910 32126 ft 337 kts 166°
2026-05-05 18:47 49.96697 -8.55966 32454 ft 340 kts 166°
2026-05-05 18:47 49.94409 -8.55013 32765 ft 342 kts 166°
2026-05-05 18:47 49.92070 -8.54049 32901 ft 351 kts 166°
2026-05-05 18:47 49.89671 -8.53059 32968 ft 362 kts 166°
2026-05-05 18:48 49.87192 -8.52030 32992 ft 375 kts 166°
2026-05-05 18:48 49.84627 -8.50973 33013 ft 389 kts 166°
2026-05-05 18:48 49.81959 -8.49873 33002 ft 403 kts 166°
2026-05-05 18:48 49.79199 -8.48739 32992 ft 418 kts 166°
2026-05-05 18:49 49.76374 -8.47575 32987 ft 433 kts 166°
2026-05-05 18:49 49.73411 -8.46358 32973 ft 448 kts 166°
2026-05-05 18:49 49.70338 -8.45099 32972 ft 463 kts 166°
2026-05-05 18:49 49.67171 -8.43800 32969 ft 478 kts 165°
2026-05-05 18:50 49.63901 -8.42462 32967 ft 493 kts 166°
2026-05-05 18:50 49.60540 -8.41090 32964 ft 503 kts 165°
2026-05-05 18:50 49.53771 -8.38330 32948 ft 504 kts 165°
2026-05-05 18:51 49.46988 -8.35576 32949 ft 504 kts 165°
2026-05-05 18:51 49.40200 -8.32825 32957 ft 505 kts 165°
2026-05-05 18:52 49.33411 -8.30083 32962 ft 505 kts 165°
2026-05-05 18:52 49.26604 -8.27340 32966 ft 505 kts 165°
2026-05-05 18:53 49.19800 -8.24606 32967 ft 506 kts 165°
2026-05-05 18:53 49.13038 -8.21898 32966 ft 506 kts 165°
2026-05-05 18:54 49.06221 -8.19174 32967 ft 506 kts 165°
2026-05-05 18:54 48.99395 -8.16455 32965 ft 507 kts 165°
2026-05-05 18:55 48.92568 -8.13743 32964 ft 507 kts 165°
2026-05-05 18:55 48.85739 -8.11037 32965 ft 507 kts 165°
2026-05-05 18:56 48.78906 -8.08338 32968 ft 507 kts 165°
2026-05-05 18:56 48.72120 -8.05664 32967 ft 508 kts 165°
2026-05-05 18:57 48.65281 -8.02977 32967 ft 508 kts 165°
2026-05-05 18:57 48.58488 -7.99876 32965 ft 507 kts 155°
2026-05-05 18:58 48.52302 -7.94963 32972 ft 505 kts 144°
2026-05-05 18:58 48.46322 -7.89369 32968 ft 506 kts 145°
2026-05-05 18:59 48.40334 -7.83796 32963 ft 506 kts 146°
2026-05-05 18:59 48.34347 -7.78235 32960 ft 506 kts 146°
2026-05-05 19:00 48.28348 -7.72673 32951 ft 506 kts 146°
2026-05-05 19:00 48.22344 -7.67120 32955 ft 506 kts 147°
2026-05-05 19:01 48.16348 -7.61594 32960 ft 506 kts 147°
2026-05-05 19:01 48.10352 -7.56083 32953 ft 506 kts 147°
2026-05-05 19:02 48.04350 -7.50583 32950 ft 505 kts 147°
2026-05-05 19:02 47.98352 -7.45101 32948 ft 505 kts 147°
2026-05-05 19:03 47.92393 -7.39670 32945 ft 505 kts 147°
2026-05-05 19:03 47.86405 -7.34227 32940 ft 505 kts 147°
2026-05-05 19:04 47.80407 -7.28790 32938 ft 504 kts 147°
2026-05-05 19:04 47.74419 -7.23378 32936 ft 503 kts 147°
2026-05-05 19:05 47.68440 -7.17990 32937 ft 503 kts 147°
2026-05-05 19:05 47.62459 -7.12614 32932 ft 502 kts 147°
2026-05-05 19:06 47.56480 -7.07255 32931 ft 502 kts 147°
2026-05-05 19:06 47.50506 -7.01914 32929 ft 501 kts 147°
2026-05-05 19:07 47.45585 -6.97396 32927 ft 500 kts 144°
2026-05-05 19:07 47.39249 -6.90074 32932 ft 498 kts 140°
2026-05-05 19:08 47.33902 -6.83568 32927 ft 498 kts 139°
2026-05-05 19:08 47.28550 -6.77091 32924 ft 497 kts 139°
2026-05-05 19:09 47.23198 -6.70638 32920 ft 497 kts 138°
2026-05-05 19:09 47.17848 -6.64207 32917 ft 496 kts 138°
2026-05-05 19:10 47.12499 -6.57786 32916 ft 496 kts 138°
2026-05-05 19:10 47.07152 -6.51384 32913 ft 496 kts 138°
2026-05-05 19:11 47.01797 -6.44988 32913 ft 496 kts 139°
2026-05-05 19:11 46.97306 -6.39643 32910 ft 496 kts 138°
2026-05-05 19:12 46.91948 -6.33275 32909 ft 496 kts 138°
2026-05-05 19:12 46.86586 -6.26921 32906 ft 496 kts 138°
2026-05-05 19:13 46.81222 -6.20582 32907 ft 496 kts 138°
2026-05-05 19:13 46.75852 -6.14253 32904 ft 496 kts 138°
2026-05-05 19:14 46.70470 -6.07926 32904 ft 497 kts 138°
2026-05-05 19:14 46.65119 -6.01652 32904 ft 497 kts 138°
2026-05-05 19:15 46.59725 -5.95343 32906 ft 498 kts 138°
2026-05-05 19:15 46.54319 -5.89037 32900 ft 498 kts 139°
2026-05-05 19:16 46.48909 -5.82744 32899 ft 499 kts 139°
2026-05-05 19:16 46.43477 -5.76441 32897 ft 499 kts 139°
2026-05-05 19:17 46.38038 -5.70145 32896 ft 500 kts 139°
2026-05-05 19:17 46.32629 -5.63904 32896 ft 500 kts 139°
2026-05-05 19:18 46.27193 -5.57645 32880 ft 499 kts 139°
2026-05-05 19:18 46.21745 -5.51389 32897 ft 499 kts 139°
2026-05-05 19:19 46.16301 -5.45155 32894 ft 499 kts 139°
2026-05-05 19:19 46.10862 -5.38942 32896 ft 498 kts 139°
2026-05-05 19:20 46.05463 -5.32791 32895 ft 498 kts 139°
2026-05-05 19:20 46.00026 -5.26611 32887 ft 497 kts 139°
2026-05-05 19:21 45.94600 -5.20461 32889 ft 496 kts 140°
2026-05-05 19:21 45.89172 -5.14323 32893 ft 497 kts 140°
2026-05-05 19:22 45.83737 -5.08195 32886 ft 497 kts 140°
2026-05-05 19:22 45.78297 -5.02073 32894 ft 497 kts 140°
2026-05-05 19:23 45.72849 -4.95961 32880 ft 497 kts 140°
2026-05-05 19:23 45.67398 -4.89860 32888 ft 498 kts 140°
2026-05-05 19:24 45.61933 -4.83760 32886 ft 498 kts 140°
2026-05-05 19:24 45.56499 -4.77709 32889 ft 499 kts 140°
2026-05-05 19:25 45.50988 -4.71585 32889 ft 499 kts 140°
2026-05-05 19:25 45.45536 -4.65545 32883 ft 500 kts 140°
2026-05-05 19:26 45.40032 -4.59465 32884 ft 501 kts 140°
2026-05-05 19:26 45.34514 -4.53384 32888 ft 502 kts 141°
2026-05-05 19:27 45.28991 -4.47308 32888 ft 502 kts 140°
2026-05-05 19:27 45.23457 -4.41247 32888 ft 503 kts 141°
2026-05-05 19:28 45.17918 -4.35181 32888 ft 503 kts 141°
2026-05-05 19:28 45.12367 -4.29126 32888 ft 504 kts 141°
2026-05-05 19:29 45.06807 -4.23078 32889 ft 504 kts 141°
2026-05-05 19:29 45.01274 -4.17065 32890 ft 504 kts 141°
2026-05-05 19:30 44.95711 -4.11041 32890 ft 504 kts 141°
2026-05-05 19:30 44.90129 -4.05015 32888 ft 505 kts 141°
2026-05-05 19:31 44.84545 -3.98996 32886 ft 505 kts 142°
2026-05-05 19:31 44.78951 -3.92988 32885 ft 506 kts 142°
2026-05-05 19:32 44.73384 -3.87018 32889 ft 507 kts 142°
2026-05-05 19:32 44.67768 -3.81010 32889 ft 508 kts 142°
2026-05-05 19:33 44.62132 -3.74999 32888 ft 508 kts 142°
2026-05-05 19:33 44.56485 -3.68993 32888 ft 509 kts 143°
2026-05-05 19:34 44.50817 -3.62975 32889 ft 511 kts 143°
2026-05-05 19:35 44.42317 -3.53974 32891 ft 511 kts 143°
2026-05-05 19:35 44.36676 -3.48025 32892 ft 511 kts 143°
2026-05-05 19:36 44.30985 -3.42037 32891 ft 511 kts 143°
2026-05-05 19:36 44.25298 -3.36068 32892 ft 512 kts 144°
2026-05-05 19:37 44.19610 -3.30114 32890 ft 512 kts 144°
2026-05-05 19:37 44.13912 -3.24161 32893 ft 511 kts 144°
2026-05-05 19:38 44.08212 -3.18227 32894 ft 512 kts 144°
2026-05-05 19:38 44.02608 -3.12123 32894 ft 512 kts 141°
2026-05-05 19:39 43.97077 -3.05886 32897 ft 512 kts 141°
2026-05-05 19:39 43.91567 -2.99701 32902 ft 513 kts 141°
2026-05-05 19:40 43.86015 -2.93481 32900 ft 513 kts 142°
2026-05-05 19:40 43.80449 -2.87253 32905 ft 514 kts 142°
2026-05-05 19:41 43.74882 -2.81036 32906 ft 514 kts 142°
2026-05-05 19:41 43.69310 -2.74828 32905 ft 515 kts 142°
2026-05-05 19:42 43.63733 -2.68626 32910 ft 515 kts 143°
2026-05-05 19:42 43.58148 -2.62430 32913 ft 515 kts 143°
2026-05-05 19:43 43.52556 -2.56243 32911 ft 516 kts 143°
2026-05-05 19:43 43.46976 -2.50084 32916 ft 517 kts 143°
2026-05-05 19:44 43.41355 -2.43896 32922 ft 517 kts 143°
2026-05-05 19:44 43.35743 -2.37731 32923 ft 517 kts 143°
2026-05-05 19:45 43.30123 -2.31574 32923 ft 516 kts 143°
2026-05-05 19:45 43.24509 -2.25436 32931 ft 517 kts 144°
2026-05-05 19:46 43.18900 -2.19319 32933 ft 517 kts 144°
2026-05-05 19:46 43.13268 -2.13193 32925 ft 517 kts 144°
2026-05-05 19:47 43.07633 -2.07082 32928 ft 516 kts 144°
2026-05-05 19:47 43.02004 -2.00992 32921 ft 516 kts 144°
2026-05-05 19:48 42.96368 -1.94904 32910 ft 516 kts 144°
2026-05-05 19:48 42.90719 -1.88826 32910 ft 517 kts 145°
2026-05-05 19:49 42.85063 -1.82736 32906 ft 518 kts 145°
2026-05-05 19:49 42.79403 -1.76660 32886 ft 518 kts 146°
2026-05-05 19:50 42.73602 -1.71028 32889 ft 510 kts 160°
2026-05-05 19:50 42.70268 -1.69492 32916 ft 502 kts 172°
2026-05-05 19:50 42.66834 -1.68773 32928 ft 500 kts 176°
2026-05-05 19:51 42.59960 -1.67241 32901 ft 500 kts 176°
2026-05-05 19:51 42.53092 -1.65702 32902 ft 500 kts 176°
2026-05-05 19:52 42.46216 -1.64172 32890 ft 500 kts 176°
2026-05-05 19:52 42.39338 -1.62651 32901 ft 500 kts 176°
2026-05-05 19:53 42.32467 -1.61139 32895 ft 500 kts 176°
2026-05-05 19:53 42.25594 -1.59629 32902 ft 501 kts 176°
2026-05-05 19:54 42.18709 -1.58119 32906 ft 501 kts 176°
2026-05-05 19:54 42.11827 -1.56613 32903 ft 501 kts 176°
2026-05-05 19:55 42.04982 -1.55120 32901 ft 501 kts 176°
2026-05-05 19:55 41.98090 -1.53618 32893 ft 502 kts 176°
2026-05-05 19:56 41.91194 -1.52116 32890 ft 502 kts 177°
2026-05-05 19:56 41.84302 -1.50619 32895 ft 501 kts 177°
2026-05-05 19:57 41.77411 -1.49131 32896 ft 501 kts 177°
2026-05-05 19:57 41.70529 -1.47645 32894 ft 501 kts 177°
2026-05-05 19:58 41.63638 -1.46159 32895 ft 500 kts 178°
2026-05-05 19:58 41.56767 -1.44682 32899 ft 501 kts 178°
2026-05-05 19:59 41.49884 -1.43206 32908 ft 500 kts 178°
2026-05-05 19:59 41.44164 -1.41980 32902 ft 500 kts 178°
2026-05-05 20:00 41.37290 -1.40512 32908 ft 500 kts 178°
2026-05-05 20:00 41.29303 -1.38808 32884 ft 500 kts 179°
2026-05-05 20:01 41.22439 -1.37350 32901 ft 499 kts 179°
2026-05-05 20:01 41.16744 -1.36146 32906 ft 498 kts 179°
2026-05-05 20:02 41.09897 -1.34697 32903 ft 498 kts 179°
2026-05-05 20:02 41.03059 -1.33250 32908 ft 497 kts 179°
2026-05-05 20:03 40.96229 -1.31806 32894 ft 496 kts 179°
2026-05-05 20:03 40.89421 -1.30395 32906 ft 493 kts 180°
2026-05-05 20:04 40.82640 -1.28649 32910 ft 496 kts 178°
2026-05-05 20:04 40.75868 -1.26801 32911 ft 495 kts 178°
2026-05-05 20:05 40.69117 -1.24975 32897 ft 494 kts 177°
2026-05-05 20:05 40.62428 -1.23170 32906 ft 494 kts 176°
2026-05-05 20:06 40.55704 -1.21355 32898 ft 493 kts 176°
2026-05-05 20:06 40.48979 -1.19539 32892 ft 493 kts 176°
2026-05-05 20:07 40.42280 -1.17728 32892 ft 492 kts 176°
2026-05-05 20:07 40.35560 -1.15918 32888 ft 491 kts 176°
2026-05-05 20:08 40.28870 -1.14120 32879 ft 491 kts 176°
2026-05-05 20:08 40.22179 -1.12325 32886 ft 490 kts 176°
2026-05-05 20:09 40.15493 -1.10530 32880 ft 490 kts 176°
2026-05-05 20:09 40.08815 -1.08748 32874 ft 489 kts 176°
2026-05-05 20:10 40.02145 -1.06969 32866 ft 489 kts 176°
2026-05-05 20:10 39.95526 -1.05207 32866 ft 489 kts 176°
2026-05-05 20:11 39.88851 -1.03436 32871 ft 488 kts 176°
2026-05-05 20:11 39.82200 -1.01670 32878 ft 487 kts 176°
2026-05-05 20:12 39.75553 -0.99907 32896 ft 487 kts 176°
2026-05-05 20:12 39.68913 -0.98319 32886 ft 479 kts 183°
2026-05-05 20:13 39.62261 -0.97350 32869 ft 480 kts 182°
2026-05-05 20:13 39.55623 -0.96390 32860 ft 480 kts 182°
2026-05-05 20:14 39.48995 -0.95430 32857 ft 480 kts 181°
2026-05-05 20:14 39.42399 -0.94468 32846 ft 480 kts 182°
2026-05-05 20:15 39.35755 -0.93500 32833 ft 480 kts 182°
2026-05-05 20:15 39.29122 -0.92529 32825 ft 479 kts 182°
2026-05-05 20:16 39.22502 -0.91563 32833 ft 479 kts 182°
2026-05-05 20:16 39.15888 -0.90598 32830 ft 479 kts 182°
2026-05-05 20:17 39.09268 -0.89636 32830 ft 478 kts 182°
2026-05-05 20:17 39.02647 -0.88675 32839 ft 478 kts 181°
2026-05-05 20:18 38.96085 -0.87725 32827 ft 478 kts 181°
2026-05-05 20:18 38.89480 -0.86772 32842 ft 476 kts 181°
2026-05-05 20:19 38.82894 -0.85824 32850 ft 476 kts 181°
2026-05-05 20:19 38.76312 -0.84875 32826 ft 465 kts 181°
2026-05-05 20:19 38.73314 -0.84417 32718 ft 403 kts 182°
2026-05-05 20:20 38.70675 -0.84057 31949 ft 368 kts 184°
2026-05-05 20:20 38.68189 -0.83726 30904 ft 351 kts 183°
2026-05-05 20:20 38.65823 -0.83370 29900 ft 336 kts 184°
2026-05-05 20:20 38.63546 -0.83052 28738 ft 322 kts 184°
2026-05-05 20:21 38.61336 -0.82740 27432 ft 318 kts 183°
2026-05-05 20:21 38.59137 -0.82420 25961 ft 320 kts 182°
2026-05-05 20:21 38.56923 -0.82126 24606 ft 318 kts 184°
2026-05-05 20:21 38.54786 -0.82259 23397 ft 298 kts 205°
2026-05-05 20:22 38.53026 -0.83458 22030 ft 281 kts 223°
2026-05-05 20:22 38.51552 -0.85040 20773 ft 273 kts 229°
2026-05-05 20:22 38.50227 -0.86751 19519 ft 269 kts 230°
2026-05-05 20:22 38.48927 -0.88502 18080 ft 273 kts 230°
2026-05-05 20:23 38.47537 -0.90177 16525 ft 276 kts 225°
2026-05-05 20:23 38.46046 -0.91732 15025 ft 278 kts 220°
2026-05-05 20:23 38.44384 -0.93018 13572 ft 279 kts 215°
2026-05-05 20:23 38.42709 -0.94262 11976 ft 279 kts 214°
2026-05-05 20:24 38.40955 -0.95353 10471 ft 282 kts 203°
2026-05-05 20:24 38.39141 -0.96237 8961 ft 283 kts 205°
2026-05-05 20:24 38.37302 -0.97213 7405 ft 283 kts 203°
2026-05-05 20:24 38.35391 -0.97647 5949 ft 286 kts 176°
2026-05-05 20:25 38.33504 -0.96907 4490 ft 286 kts 147°
2026-05-05 20:25 38.32173 -0.95168 3698 ft 263 kts 117°
2026-05-05 20:25 38.31746 -0.93073 3293 ft 231 kts 84°
2026-05-05 20:25 38.32124 -0.91219 3304 ft 196 kts 69°
2026-05-05 20:26 38.32415 -0.89864 4239 ft 143 kts 76°
2026-05-05 20:26 38.32614 -0.88551 4631 ft 167 kts 79°
2026-05-05 20:26 38.32572 -0.87023 4492 ft 186 kts 98°
2026-05-05 20:26 38.32329 -0.85415 4223 ft 185 kts 100°
2026-05-05 20:27 38.32104 -0.83925 4294 ft 151 kts 101°
2026-05-05 20:27 38.31910 -0.82643 3984 ft 146 kts 100°
2026-05-05 20:27 38.31744 -0.81422 3832 ft 133 kts 98°
2026-05-05 20:27 38.31602 -0.80318 3662 ft 121 kts 98°
2026-05-05 20:28 38.31469 -0.79235 3311 ft 126 kts 99°
2026-05-05 20:28 38.31319 -0.78166 3062 ft 119 kts 101°
2026-05-05 20:28 38.31168 -0.77121 2716 ft 122 kts 101°
2026-05-05 20:28 38.31021 -0.76076 2446 ft 118 kts 100°
2026-05-05 20:29 38.30880 -0.75035 2180 ft 126 kts 101°
2026-05-05 20:29 38.30727 -0.73986 2393 ft 123 kts 101°
2026-05-05 20:29 38.30563 -0.72902 2740 ft 129 kts 102°
2026-05-05 20:29 38.30415 -0.71668 2857 ft 156 kts 99°
2026-05-05 20:30 38.30228 -0.70141 2657 ft 195 kts 100°
2026-05-05 20:30 38.29959 -0.68276 2156 ft 229 kts 101°
2026-05-05 20:30 38.29653 -0.66224 1726 ft 241 kts 101°
2026-05-05 20:30 38.29373 -0.64254 1284 ft 199 kts 99°
2026-05-05 20:31 38.29162 -0.62681 955 ft 167 kts 99°
2026-05-05 20:31 38.28975 -0.61317 750 ft 149 kts 99°
2026-05-05 20:31 38.28800 -0.60028 559 ft 147 kts 99°
2026-05-05 20:31 38.28617 -0.58743 416 ft 149 kts 100°
2026-05-05 20:32 38.28440 -0.57417 206 ft 154 kts 100°
2026-05-05 20:32 38.28258 -0.56086 133 ft 149 kts 100°
2026-05-05 20:32 38.28090 -0.54893 73 ft 116 kts 101°
2026-05-05 20:32 38.28006 -0.54236 55 ft 32 kts 79°
2026-05-05 20:33 38.28067 -0.54112 48 ft 10 kts
2026-05-05 20:33 38.28112 -0.54106 53 ft 17 kts
2026-05-05 20:33 38.28162 -0.54164 53 ft 0 kts 280°